Weather History for St. Petersburg, FL

Change the Weather History Date:

Tuesday, May 6, 2014

  Actual Average Record
Temperature  
Mean Temperature 81 °F -  
Max Temperature 89 °F 85 °F 91 °F (1950)
Min Temperature 73 °F 69 °F 60 °F (1954)
Cooling Degree Days 16    
Growing Degree Days 31 (Base 50)    
Moisture  
Dew Point 63 °F    
Average Humidity 58    
Maximum Humidity 76    
Minimum Humidity 36    
Precipitation  
Precipitation 0.00 in - - ()
Sea Level Pressure  
Sea Level Pressure 30.00 in    
Wind  
Wind Speed 5 mph (NE)    
Max Wind Speed 12 mph    
Max Gust Speed -    
Visibility 10 miles    
Events      
Averages and records for this station are not official NWS values.
T = Trace of Precipitation, MM = Missing Value Source: NWS Daily Summary

Daily Weather History Graph

Daily Weather History Graph

Search for Another Location

Airport:

Trip Planner

Search our weather history database for the weather conditions in past years. The results will help you decide how hot, cold, wet, or windy it might be!

Date:

Astronomy

May. 06, 2014 Rise Set
Actual Time 6:47 AM EDT 8:07 PM EDT
Civil Twilight 6:22 AM EDT 8:32 PM EDT
Nautical Twilight 5:52 AM EDT 9:02 PM EDT
Astronomical Twilight 5:21 AM EDT 9:33 PM EDT
Moon 12:55 PM EDT (5/6) 1:30 AM EDT (5/6)
Length of Visible Light 14h 10m
Length of Day
13h 20m
Waxing Crescent, 46% of the Moon is Illuminated
May 6
Waxing Crescent
May 6
First Quarter
May 14
Full
May 21
Last Quarter
May 28
New

Hourly Weather History & Observations

Time (EDT) Temp. Heat Index Dew Point Humidity Pressure Visibility Wind Dir Wind Speed Gust Speed Precip Events Conditions
12:53 AM 75.0 °F - 64.0 °F 69% 30.01 in 10.0 mi NNE 4.6 mph - N/A   Clear
1:53 AM 73.9 °F - 64.0 °F 71% 30.01 in 10.0 mi North 3.5 mph - N/A   Clear
2:53 AM 73.0 °F - 64.9 °F 76% 29.99 in 10.0 mi NNE 4.6 mph - N/A   Clear
3:53 AM 73.0 °F - 64.9 °F 76% 29.99 in 10.0 mi NNE 5.8 mph - N/A   Clear
7:53 AM 73.0 °F - 63.0 °F 71% 30.02 in 10.0 mi SE 8.1 mph - N/A   Clear
8:53 AM 73.9 °F - 64.0 °F 71% 30.04 in 10.0 mi ESE 6.9 mph - N/A   Clear
10:53 AM 77.0 °F - 66.9 °F 71% 30.04 in 10.0 mi East 5.8 mph - N/A   Clear
11:53 AM 79.0 °F - 69.1 °F 72% 30.04 in 10.0 mi East 4.6 mph - N/A   Clear
12:53 PM 82.0 °F 83.4 °F 64.0 °F 54% 30.03 in 10.0 mi ENE 4.6 mph - N/A   Clear
1:53 PM 84.9 °F 85.0 °F 61.0 °F 44% 30.01 in 10.0 mi ENE 3.5 mph - N/A   Clear
2:53 PM 87.1 °F 87.0 °F 61.0 °F 41% 29.99 in 10.0 mi ENE 3.5 mph - N/A   Clear
3:53 PM 89.1 °F 88.8 °F 60.1 °F 38% 29.97 in 10.0 mi Calm Calm - N/A   Clear
4:53 PM 88.0 °F 86.9 °F 57.9 °F 36% 29.96 in 10.0 mi ENE 5.8 mph - N/A   Clear
5:53 PM 89.1 °F 88.2 °F 59.0 °F 36% 29.95 in 10.0 mi Calm Calm - N/A   Clear
6:53 PM 84.9 °F 86.1 °F 64.0 °F 49% 29.95 in 10.0 mi WNW 4.6 mph - N/A   Clear
7:53 PM 82.0 °F 83.0 °F 62.1 °F 51% 29.96 in 10.0 mi NW 8.1 mph - N/A   Clear
8:53 PM 81.0 °F 81.7 °F 61.0 °F 50% 29.97 in 10.0 mi NW 6.9 mph - N/A   Clear
9:53 PM 79.0 °F - 63.0 °F 58% 29.99 in 10.0 mi NNW 6.9 mph - N/A   Clear
10:53 PM 78.1 °F - 64.9 °F 64% 30.00 in 10.0 mi North 5.8 mph - N/A   Clear
11:53 PM 79.0 °F - 68.0 °F 69% 30.01 in 10.0 mi East 11.5 mph - N/A   Clear